Location: Barcelona
(41.3830°N, 2.1830°E)
Time: 15:39:59
(UTC+02:00)

ISS - Pass Details

Date: 20 September 2019
Orbit: 411 x 421 km, 51.6° (Epoch: 18 September)

Event Time Altitude Azimuth Distance (km) Brightness Sun altitude
Rises 21:19:49 0° 237° (WSW) 2,333 0.6 -16.9°
Reaches altitude 10° 21:21:54 10° 239° (WSW) 1,474 -0.4 -17.3°
Maximum altitude 21:25:12 77° 324° (NW) 426 -3.7 -17.9°
Enters shadow 21:26:17 39° 44° (NE) 629 -3.1 -18.1°
